Location: Clatteringshaws Loch
(55.0508°N, 4.2860°W)
Time: 15:02:32
(UTC+01:00)

Amateur Radio Satellites - All Passes

Search period start: 23 August 2017 14:32
Search period end: 24 August 2017 14:32
Location: Clatteringshaws Loch, 55.0508°N, 4.2860°W

Satellite Date Start Highest point End Downlink Frequencies (MHz)
Time Altitude Azimuth
ISS 23 Aug 14:37:26 14:40:26 34° 197° (SSW) 14:43:26 437.550
nSIGHT-1 23 Aug 14:42:21 14:45:18 32° 198° (SSW) 14:48:15 .
BEESAT 3 23 Aug 14:46:20 14:48:20 13° 247° (WSW) 14:50:18 437.485
SPROUT 23 Aug 14:47:18 14:51:19 41° 294° (WNW) 14:55:19 437.525
YUBILEINY 23 Aug 14:50:19 14:56:54 25° 74° (ENE) 15:03:28 435.215
DX 1 23 Aug 14:52:21 14:56:43 64° 104° (ESE) 15:01:01 434.975-435.025
VELOX 1 23 Aug 14:59:25 15:03:37 43° 295° (WNW) 15:07:47 145.980
AO-7 23 Aug 15:01:08 15:09:28 74° 62° (ENE) 15:17:48 .
BEESAT 2 23 Aug 15:05:16 15:08:25 22° 241° (WSW) 15:11:33 435.950
ESTCUBE 1 23 Aug 15:05:28 15:08:01 15° 309° (NW) 15:10:32 437.505/2401.250
RS-15 23 Aug 15:10:04 15:22:16 58° 344° (NNW) 15:34:15 29.354- 29.394
MOZHAYETS 4 23 Aug 15:16:29 15:18:32 13° 84° (E) 15:20:35
ITAMSAT 1 23 Aug 15:19:02 15:24:11 64° 68° (ENE) 15:29:20 435.822/435.867
50 SAT 23 Aug 15:29:02 15:32:08 34° 294° (WNW) 15:35:13 437.505
DOVE 4 23 Aug 15:29:23 15:31:40 13° 48° (NE) 15:33:55 437.250
Gurwin Techsat 1B 23 Aug 15:29:47 15:33:54 22° 271° (W) 15:38:03 435.225
Oscar 19 23 Aug 15:36:34 15:39:16 14° 276° (W) 15:41:59 437.125/150
HO-68 23 Aug 15:51:18 15:54:01 13° 23° (NNE) 15:56:45 435.675
BEESAT 23 Aug 15:54:44 15:58:52 28° 94° (E) 16:02:58 436.000
UKube-1 23 Aug 16:01:22 16:05:32 47° 294° (WNW) 16:09:40 .
O/OREOS (USA 219) 23 Aug 16:09:12 16:11:09 13° 21° (NNE) 16:13:08 437.305
CUTE-I 23 Aug 16:11:21 16:13:51 14° 43° (NE) 16:16:23 437.470
ISS 23 Aug 16:14:43 16:16:15 13° 216° (SW) 16:17:47 437.550
nSIGHT-1 23 Aug 16:19:52 16:20:58 11° 217° (SW) 16:22:04 .
DX 1 23 Aug 16:29:08 16:32:33 23° 303° (WNW) 16:35:56 434.975-435.025
ITUPSAT 1 23 Aug 16:30:40 16:35:22 53° 101° (E) 16:40:02 437.325
YUBILEINY 23 Aug 16:43:41 16:52:28 83° 98° (E) 17:01:16 435.215
KAITUO 1B 23 Aug 16:51:20 16:52:46 12° 53° (NE) 16:54:12 145.475/437.950
MOZHAYETS 4 23 Aug 16:51:53 16:56:32 74° 104° (ESE) 17:01:09
AO-7 23 Aug 16:55:22 17:02:55 37° 265° (W) 17:10:31 .
ITAMSAT 1 23 Aug 16:59:47 17:04:04 26° 268° (W) 17:08:24 435.822/435.867
DOVE 4 23 Aug 17:03:20 17:08:24 52° 68° (ENE) 17:13:16 437.250
NUDT-PHONESAT 23 Aug 17:18:24 17:21:01 19° 59° (ENE) 17:23:39 437.300
CUBESAT XI-V 23 Aug 17:19:03 17:23:27 37° 96° (E) 17:27:49 437.345
LilacSat-2 23 Aug 17:21:50 17:25:04 27° 62° (ENE) 17:28:19 437.200
XW-2D 23 Aug 17:22:33 17:25:44 26° 62° (ENE) 17:28:56 145.860 - 145.880
RS-15 23 Aug 17:25:00 17:37:11 58° 16° (NNE) 17:48:54 29.354- 29.394
BEESAT 23 Aug 17:32:16 17:36:54 52° 294° (WNW) 17:41:32 436.000
XW-2B 23 Aug 17:33:28 17:36:49 31° 65° (ENE) 17:40:13 145.730 - 145.750
HO-68 23 Aug 17:33:40 17:39:38 30° 48° (NE) 17:45:38 435.675
UKube-1 23 Aug 17:40:03 17:40:35 10° 314° (NW) 17:41:07 .
CUTE-I 23 Aug 17:47:40 17:52:48 49° 64° (ENE) 17:57:57 437.470
O/OREOS (USA 219) 23 Aug 17:47:50 17:51:59 33° 45° (NE) 17:56:07 437.305
XW-2C 23 Aug 17:52:22 17:56:00 47° 69° (ENE) 17:59:40 145.795 - 145.815
CUTE 1.7 + AOD 2 23 Aug 17:53:53 17:56:34 16° 54° (NE) 17:59:15 437.475
XW-2F 23 Aug 18:02:06 18:05:47 55° 70° (ENE) 18:09:31 145.980 - 146.000
ITUPSAT 1 23 Aug 18:08:52 18:13:00 30° 301° (WNW) 18:17:08 437.325
KKS-1 23 Aug 18:19:43 18:24:08 56° 102° (ESE) 18:28:29 437.445
UWE-3 23 Aug 18:22:16 18:23:40 11° 50° (NE) 18:25:03 435.000/436.395/437.385
KAITUO 1B 23 Aug 18:22:22 18:26:06 74° 72° (ENE) 18:29:52 145.475/437.950
MOZHAYETS 4 23 Aug 18:29:45 18:33:15 22° 304° (NW) 18:36:45
CUBEBUG 2 23 Aug 18:33:32 18:36:36 20° 58° (ENE) 18:39:39 437.445
SEEDS 23 Aug 18:35:18 18:38:41 24° 59° (ENE) 18:42:06 437.485
DOVE 4 23 Aug 18:41:38 18:46:17 32° 267° (W) 18:50:47 437.250
YUBILEINY 23 Aug 18:42:36 18:50:21 33° 304° (NW) 18:58:07 435.215
STARS 23 Aug 18:50:17 18:54:34 50° 101° (E) 18:58:49 437.465
NUDT-PHONESAT 23 Aug 18:50:55 18:54:34 58° 259° (WSW) 18:58:15 437.300
ZACube-1 23 Aug 18:54:51 18:56:51 13° 52° (NE) 18:58:53 437.345
LilacSat-2 23 Aug 18:55:38 18:59:13 39° 262° (W) 19:02:51 437.200
XW-2D 23 Aug 18:56:14 18:59:47 39° 262° (W) 19:03:24 145.860 - 145.880
CUBESAT XI-V 23 Aug 18:56:28 19:00:53 40° 296° (WNW) 19:05:15 437.345
XW-2B 23 Aug 19:07:36 19:11:00 32° 264° (W) 19:14:28 145.730 - 145.750
XW-2A 23 Aug 19:08:33 19:11:31 30° 66° (ENE) 19:14:32 145.665 - 145.685
BEESAT 23 Aug 19:11:45 19:13:43 13° 314° (NW) 19:15:41 436.000
AAUSAT CUBESAT 2 23 Aug 19:12:01 19:15:30 26° 61° (ENE) 19:18:59 437.432
AO-73 23 Aug 19:13:29 19:16:08 17° 55° (NE) 19:18:49 145.935
HO-68 23 Aug 19:19:31 19:26:41 89° 249° (WSW) 19:33:55 435.675
O/OREOS (USA 219) 23 Aug 19:27:11 19:31:35 50° 246° (WSW) 19:36:00 437.305
XW-2C 23 Aug 19:27:29 19:30:26 21° 269° (W) 19:33:24 145.795 - 145.815
CUTE 1.7 + AOD 2 23 Aug 19:27:33 19:31:49 89° 72° (ENE) 19:36:08 437.475
CUTE-I 23 Aug 19:28:09 19:33:03 35° 265° (W) 19:37:57 437.470
XW-2F 23 Aug 19:37:35 19:40:15 18° 270° (W) 19:42:56 145.980 - 146.000
RS-15 23 Aug 19:38:33 19:50:50 85° 227° (SW) 20:02:30 29.354- 29.394
Oscar 11 23 Aug 19:53:52 19:57:35 28° 61° (ENE) 20:01:19 .
UWE-3 23 Aug 19:55:14 19:59:20 60° 70° (ENE) 20:03:26 435.000/436.395/437.385
KKS-1 23 Aug 19:56:45 20:00:26 26° 302° (WNW) 20:04:04 437.445
KAITUO 1B 23 Aug 19:58:33 20:00:35 14° 273° (W) 20:02:39 145.475/437.950
CUBEBUG 2 23 Aug 20:08:40 20:12:51 66° 257° (WSW) 20:17:02 437.445
SEEDS 23 Aug 20:09:56 20:14:05 56° 259° (W) 20:18:18 437.485
STARS 23 Aug 20:27:01 20:30:43 27° 300° (WNW) 20:34:23 437.465
ZACube-1 23 Aug 20:28:20 20:32:26 73° 74° (ENE) 20:36:37 437.345
Max Valier Satellite 23 Aug 20:37:01 20:39:13 15° 57° (ENE) 20:41:25 145.860
STRAND 1 23 Aug 20:38:14 20:43:13 49° 100° (E) 20:48:09 437.568
XW-2A 23 Aug 20:41:28 20:44:18 25° 265° (W) 20:47:10 145.665 - 145.685
AAUSAT CUBESAT 2 23 Aug 20:46:40 20:50:44 49° 261° (W) 20:54:50 437.432
YUBILEINY 23 Aug 20:47:05 20:50:49 13° 335° (NNW) 20:54:32 435.215
AO-73 23 Aug 20:47:44 20:51:51 83° 254° (WSW) 20:56:03 145.935
CUTE 1.7 + AOD 2 23 Aug 21:06:00 21:08:18 14° 274° (W) 21:10:37 437.475
HO-68 23 Aug 21:09:46 21:15:24 24° 272° (W) 21:21:04 435.675
FO-29 23 Aug 21:20:31 21:23:51 16° 82° (E) 21:27:03 435.910
EO-88 23 Aug 21:23:15 21:26:30 31° 65° (ENE) 21:29:46 145.990 - 145.960
DELFI C3 23 Aug 21:25:14 21:29:08 52° 70° (ENE) 21:33:04 145.870
Oscar 11 23 Aug 21:29:24 21:33:34 46° 262° (W) 21:37:46 .
UWE-3 23 Aug 21:33:09 21:36:12 19° 270° (W) 21:39:15 435.000/436.395/437.385
PCSat 23 Aug 21:48:16 21:51:05 14° 104° (ESE) 21:53:55 145.827
RS-15 23 Aug 21:51:38 22:01:50 35° 254° (WSW) 22:11:39 29.354- 29.394
TIGRISAT 23 Aug 22:04:45 22:06:57 14° 86° (E) 22:09:10 435.000
ZACube-1 23 Aug 22:06:37 22:09:15 16° 272° (W) 22:11:56 437.345
Max Valier Satellite 23 Aug 22:08:57 22:12:36 75° 257° (WSW) 22:16:18 145.860
PRISM 23 Aug 22:17:37 22:19:22 12° 86° (E) 22:21:06 437.425
STRAND 1 23 Aug 22:17:42 22:22:16 34° 300° (WNW) 22:26:50 437.568
AO-73 23 Aug 22:27:09 22:28:50 12° 275° (W) 22:30:30 145.935
SPROUT 23 Aug 22:39:04 22:40:21 11° 49° (NE) 22:41:38 437.525
LO-87 23 Aug 22:43:17 22:46:34 35° 67° (ENE) 22:49:52 145.935 - 145.965
VELOX 1 23 Aug 22:53:13 22:55:26 14° 49° (NE) 22:57:40 145.980
EO-88 23 Aug 22:56:56 23:00:10 30° 264° (W) 23:03:27 145.990 - 145.960
ESTCUBE 1 23 Aug 22:57:11 23:01:25 41° 65° (ENE) 23:05:42 437.505/2401.250
DELFI C3 23 Aug 23:01:04 23:04:11 21° 269° (W) 23:07:20 145.870
FO-29 23 Aug 23:04:21 23:10:08 81° 105° (ESE) 23:15:24 435.910
UNISAT 6 23 Aug 23:05:48 23:10:00 47° 99° (E) 23:14:13 437.425
SO-50 23 Aug 23:21:14 23:25:16 33° 123° (ESE) 23:29:20 436.795
PCSat 23 Aug 23:28:09 23:33:30 64° 125° (SE) 23:38:54 145.827
TIGRISAT 23 Aug 23:39:59 23:44:19 87° 109° (ESE) 23:48:42 435.000
PRISM 23 Aug 23:51:10 23:55:21 83° 106° (ESE) 23:59:28 437.425
UKube-1 23 Aug 23:53:48 23:55:26 12° 48° (NE) 23:57:04 .
SPROUT 24 Aug 00:11:14 00:15:24 55° 68° (ENE) 00:19:34 437.525
LO-87 24 Aug 00:17:03 00:20:05 25° 266° (W) 00:23:07 145.935 - 145.965
DX 1 24 Aug 00:19:30 00:23:00 24° 58° (ENE) 00:26:30 434.975-435.025
AIST 2D 24 Aug 00:22:55 00:26:19 40° 98° (E) 00:29:42 435.315
VELOX 1 24 Aug 00:26:41 00:31:06 65° 70° (ENE) 00:35:33 145.980
M-CUBED/EXP-1 PRIME 24 Aug 00:27:51 00:31:22 23° 97° (E) 00:34:40 437.505
NANOSAT C BR1 24 Aug 00:33:38 00:37:02 23° 92° (E) 00:40:25 145.865
50 SAT 24 Aug 00:33:55 00:36:55 29° 64° (ENE) 00:39:54 437.505
ESTCUBE 1 24 Aug 00:34:13 00:38:19 33° 265° (W) 00:42:28 437.505/2401.250
POLYITAN 1 24 Aug 00:41:07 00:44:50 29° 95° (E) 00:48:33 437.675
UNISAT 6 24 Aug 00:42:53 00:46:33 28° 299° (WNW) 00:50:17 437.425
YUBILEINY 24 Aug 00:48:15 00:54:39 22° 44° (NE) 01:01:00 435.215
FO-29 24 Aug 00:50:07 00:54:37 24° 310° (NW) 00:58:51 435.910
EO-79 24 Aug 00:55:53 00:59:52 39° 98° (E) 01:03:49 145.935-145.965
QB50P2 24 Aug 00:56:18 01:00:21 43° 99° (E) 01:04:23 145.880/145.840
SO-50 24 Aug 01:01:07 01:05:34 59° 324° (NW) 01:10:04 436.795
BUGSAT 1 24 Aug 01:10:40 01:13:05 15° 88° (E) 01:15:31 437.445
PCSat 24 Aug 01:12:05 01:17:14 41° 328° (NNW) 01:22:23 145.827
TIGRISAT 24 Aug 01:17:41 01:20:29 17° 305° (NW) 01:23:19 435.000
DUCHIFAT 1 24 Aug 01:22:01 01:26:09 55° 101° (E) 01:30:15 145.980
UKube-1 24 Aug 01:26:22 01:30:36 56° 68° (ENE) 01:34:53 .
PRISM 24 Aug 01:27:23 01:30:07 17° 305° (NW) 01:32:49 437.425
BEESAT 24 Aug 01:32:37 01:35:27 16° 49° (NE) 01:38:17 436.000
NO-84 24 Aug 01:34:36 01:36:32 16° 142° (SE) 01:38:26 435.350 FM
SPROUT 24 Aug 01:48:15 01:51:36 22° 268° (W) 01:55:00 437.525
DX 1 24 Aug 01:54:31 01:58:52 61° 258° (WSW) 02:03:15 434.975-435.025
AIST 2D 24 Aug 01:56:29 01:59:20 23° 297° (WNW) 02:02:13 435.315
Gurwin Techsat 1B 24 Aug 01:57:46 02:01:18 18° 86° (E) 02:04:50 435.225
Oscar 19 24 Aug 01:58:23 02:02:37 24° 91° (E) 02:06:50 437.125/150
M-CUBED/EXP-1 PRIME 24 Aug 02:01:45 02:06:09 59° 298° (WNW) 02:10:15 437.505
VELOX 1 24 Aug 02:04:36 02:07:58 21° 270° (W) 02:11:22 145.980
50 SAT 24 Aug 02:06:31 02:09:33 29° 264° (W) 02:12:35 437.505
ITUPSAT 1 24 Aug 02:07:42 02:11:37 26° 57° (ENE) 02:15:33 437.325
NANOSAT C BR1 24 Aug 02:08:56 02:13:01 51° 292° (WNW) 02:17:06 145.865
POLYITAN 1 24 Aug 02:16:47 02:20:45 41° 294° (WNW) 02:24:42 437.675
MOZHAYETS 4 24 Aug 02:24:23 02:28:15 28° 60° (ENE) 02:32:09
EO-79 24 Aug 02:31:51 02:35:34 31° 298° (WNW) 02:39:17 145.935-145.965
QB50P2 24 Aug 02:32:22 02:36:01 29° 298° (WNW) 02:39:41 145.880/145.840
SO-50 24 Aug 02:42:57 02:46:50 27° 348° (NNW) 02:50:43 436.795
YUBILEINY 24 Aug 02:44:56 02:53:36 63° 71° (ENE) 03:02:13 435.215
BUGSAT 1 24 Aug 02:44:56 02:48:58 75° 289° (WNW) 02:53:00 437.445
CUBESAT XI-V 24 Aug 02:54:01 02:56:56 17° 52° (NE) 02:59:52 437.345
AO-7 24 Aug 02:56:29 03:00:31 14° 78° (ENE) 03:04:32 .
PCSat 24 Aug 02:57:37 03:01:59 24° 353° (N) 03:06:22 145.827
DUCHIFAT 1 24 Aug 02:58:13 03:01:33 24° 301° (WNW) 03:04:53 145.980
UKube-1 24 Aug 03:03:32 03:06:58 23° 268° (W) 03:10:25 .
BEESAT 24 Aug 03:07:45 03:12:28 71° 70° (ENE) 03:17:14 436.000
NO-84 24 Aug 03:10:39 03:13:28 59° 162° (SSE) 03:16:17 435.350 FM
ITAMSAT 1 24 Aug 03:26:11 03:28:29 13° 83° (E) 03:30:46 435.822/435.867
Gurwin Techsat 1B 24 Aug 03:36:42 03:42:04 87° 105° (ESE) 03:47:24 435.225
Oscar 19 24 Aug 03:37:13 03:42:26 68° 291° (WNW) 03:47:36 437.125/150
M-CUBED/EXP-1 PRIME 24 Aug 03:37:17 03:39:42 15° 319° (NW) 03:42:03 437.505
ITUPSAT 1 24 Aug 03:44:25 03:49:08 62° 257° (WSW) 03:53:53 437.325
NANOSAT C BR1 24 Aug 03:47:03 03:47:51 10° 312° (NW) 03:48:39 145.865
KKS-1 24 Aug 03:49:14 03:52:43 23° 57° (ENE) 03:56:11 437.445
MOZHAYETS 4 24 Aug 04:00:45 04:05:12 52° 260° (W) 04:09:42
STARS 24 Aug 04:18:45 04:21:58 20° 55° (NE) 04:25:10 437.465
BUGSAT 1 24 Aug 04:21:43 04:23:41 13° 308° (NW) 04:25:38 437.445
SO-50 24 Aug 04:24:36 04:28:29 27° 12° (NNE) 04:32:23 436.795
CUBESAT XI-V 24 Aug 04:28:55 04:33:36 77° 72° (ENE) 04:38:20 437.345
BEESAT 3 24 Aug 04:41:29 04:44:10 17° 116° (ESE) 04:46:51 437.485
YUBILEINY 24 Aug 04:42:11 04:50:08 42° 275° (W) 04:58:04 435.215
PCSat 24 Aug 04:42:20 04:47:01 28° 19° (NNE) 04:51:41 145.827
BEESAT 24 Aug 04:47:12 04:50:46 21° 270° (W) 04:54:21 436.000
AO-7 24 Aug 04:47:15 04:55:25 54° 102° (ESE) 05:03:30 .
NO-84 24 Aug 04:47:56 04:50:47 89° 10° (N) 04:53:42 435.350 FM
AO-85 24 Aug 04:52:48 04:54:43 13° 114° (ESE) 04:56:38 145.980
ITAMSAT 1 24 Aug 05:03:48 05:08:59 67° 103° (ESE) 05:14:08 435.822/435.867
BEESAT 2 24 Aug 05:04:43 05:05:51 11° 111° (ESE) 05:07:00 435.950
Gurwin Techsat 1B 24 Aug 05:17:23 05:21:27 23° 308° (NW) 05:25:30 435.225
Oscar 19 24 Aug 05:17:38 05:20:55 17° 312° (NW) 05:24:12 437.125/150
KKS-1 24 Aug 05:24:27 05:28:54 67° 256° (WSW) 05:33:23 437.445
ITUPSAT 1 24 Aug 05:26:50 05:27:58 11° 278° (W) 05:29:07 437.325
STARS 24 Aug 05:53:27 05:57:52 76° 255° (WSW) 06:02:17 437.465
CUTE-I 24 Aug 05:59:51 06:00:57 11° 80° (E) 06:02:03 437.470
SO-50 24 Aug 06:05:15 06:09:45 58° 36° (NE) 06:14:16 436.795
CUBESAT XI-V 24 Aug 06:08:16 06:11:33 19° 272° (W) 06:14:52 437.345
BEESAT 3 24 Aug 06:17:10 06:21:13 90° 46° (NE) 06:25:18 437.485
XW-2D 24 Aug 06:22:14 06:24:28 15° 88° (E) 06:26:41 145.860 - 145.880
LilacSat-2 24 Aug 06:22:16 06:24:37 15° 88° (E) 06:26:57 437.200
STRAND 1 24 Aug 06:23:11 06:27:32 29° 58° (ENE) 06:31:55 437.568
NO-84 24 Aug 06:25:17 06:28:02 44° 204° (SSW) 06:30:56 435.350 FM
PCSat 24 Aug 06:25:56 06:31:22 65° 43° (NE) 06:36:46 145.827
AO-85 24 Aug 06:30:30 06:34:25 77° 133° (SE) 06:38:24 145.980
DOVE 4 24 Aug 06:32:45 06:37:13 47° 98° (E) 06:41:25 437.250
XW-2B 24 Aug 06:33:04 06:35:45 18° 90° (E) 06:38:26 145.730 - 145.750
BEESAT 2 24 Aug 06:38:48 06:42:47 61° 131° (SE) 06:46:50 435.950
AO-7 24 Aug 06:40:16 06:48:17 53° 305° (NW) 06:56:14 .
HO-68 24 Aug 06:41:38 06:44:20 12° 77° (ENE) 06:47:01 435.675
YUBILEINY 24 Aug 06:43:11 06:44:21 10° 301° (WNW) 06:45:31 435.215
ITAMSAT 1 24 Aug 06:43:47 06:48:06 27° 304° (NW) 06:52:25 435.822/435.867
XW-2C 24 Aug 06:51:55 06:55:14 26° 94° (E) 06:58:32 145.795 - 145.815
XW-2F 24 Aug 07:01:07 07:04:34 30° 95° (E) 07:08:00 145.980 - 146.000
KKS-1 24 Aug 07:05:10 07:06:20 11° 276° (W) 07:07:31 437.445
CUTE 1.7 + AOD 2 24 Aug 07:07:31 07:08:28 11° 82° (E) 07:09:25 437.475
KAITUO 1B 24 Aug 07:20:18 07:23:54 38° 97° (E) 07:27:29 145.475/437.950
STARS 24 Aug 07:33:13 07:34:59 12° 275° (W) 07:36:46 437.465
CUTE-I 24 Aug 07:36:58 07:42:14 55° 101° (E) 07:47:27 437.470
FO-29 24 Aug 07:39:30 07:44:54 25° 51° (NE) 07:49:52 435.910
SO-50 24 Aug 07:45:56 07:50:04 35° 237° (WSW) 07:54:14 436.795
SEEDS 24 Aug 07:47:12 07:49:56 16° 87° (E) 07:52:40 437.485
NUDT-PHONESAT 24 Aug 07:47:41 07:51:28 71° 104° (ESE) 07:55:13 437.300
CUBEBUG 2 24 Aug 07:52:44 07:55:19 16° 88° (E) 07:57:56 437.445
XW-2D 24 Aug 07:55:16 07:59:08 74° 286° (WNW) 08:02:59 145.860 - 145.880
LilacSat-2 24 Aug 07:55:28 07:59:22 72° 286° (WNW) 08:03:14 437.200
BEESAT 3 24 Aug 07:55:42 07:59:15 28° 338° (NNW) 08:02:50 437.485
XW-2A 24 Aug 07:56:33 07:58:12 13° 88° (E) 07:59:52 145.665 - 145.685
STRAND 1 24 Aug 08:01:25 08:06:28 60° 258° (WSW) 08:11:32 437.568
NO-84 24 Aug 08:03:43 08:04:53 12° 222° (SW) 08:06:05 435.350 FM
XW-2B 24 Aug 08:06:29 08:10:18 59° 289° (WNW) 08:14:06 145.730 - 145.750
PCSat 24 Aug 08:09:41 08:14:31 33° 244° (WSW) 08:19:19 145.827
DOVE 4 24 Aug 08:10:46 08:14:45 29° 300° (WNW) 08:18:31 437.250
AO-85 24 Aug 08:11:40 08:15:11 30° 337° (NNW) 08:18:48 145.980
BEESAT 2 24 Aug 08:17:01 08:20:47 35° 332° (NNW) 08:24:34 435.950
AAUSAT CUBESAT 2 24 Aug 08:22:05 08:24:55 17° 88° (E) 08:27:44 437.432
XW-2C 24 Aug 08:25:56 08:29:32 38° 293° (WNW) 08:33:08 145.795 - 145.815
HO-68 24 Aug 08:26:53 08:33:53 52° 100° (E) 08:40:50 435.675
AO-73 24 Aug 08:29:39 08:31:29 12° 85° (E) 08:33:20 145.935
AO-7 24 Aug 08:33:26 08:39:25 23° 330° (NNW) 08:45:24 .
XW-2F 24 Aug 08:35:14 08:38:43 33° 295° (WNW) 08:42:11 145.980 - 146.000
UNISAT 6 24 Aug 08:36:40 08:39:29 17° 55° (NE) 08:42:18 437.425
CUTE 1.7 + AOD 2 24 Aug 08:40:50 08:45:09 68° 103° (ESE) 08:49:26 437.475
KAITUO 1B 24 Aug 08:54:32 08:57:47 27° 297° (WNW) 09:01:01 145.475/437.950
Oscar 11 24 Aug 09:09:33 09:12:55 21° 90° (E) 09:16:16 .
TIGRISAT 24 Aug 09:09:40 09:13:19 28° 61° (ENE) 09:16:57 435.000
PRISM 24 Aug 09:12:38 09:16:01 24° 59° (ENE) 09:19:25 437.425
UWE-3 24 Aug 09:13:28 09:17:36 50° 99° (E) 09:21:50 435.000/436.395/437.385
CUTE-I 24 Aug 09:17:23 09:22:06 33° 302° (WNW) 09:26:47 437.470
SEEDS 24 Aug 09:21:53 09:26:11 77° 286° (WNW) 09:30:25 437.485
FO-29 24 Aug 09:22:03 09:29:19 82° 71° (ENE) 09:35:46 435.910
NUDT-PHONESAT 24 Aug 09:22:28 09:24:55 17° 302° (WNW) 09:27:21 437.300
XW-2A 24 Aug 09:27:57 09:31:22 68° 288° (WNW) 09:34:45 145.665 - 145.685
CUBEBUG 2 24 Aug 09:28:17 09:32:30 79° 285° (WNW) 09:36:47 437.445
XW-2D 24 Aug 09:31:03 09:32:39 12° 307° (NW) 09:34:15 145.860 - 145.880
LilacSat-2 24 Aug 09:31:23 09:32:58 12° 307° (NW) 09:34:32 437.200
BEESAT 3 24 Aug 09:34:50 09:37:55 20° 1° (N) 09:41:00 437.485
XW-2B 24 Aug 09:43:01 09:43:43 10° 309° (NW) 09:44:24 145.730 - 145.750
ZACube-1 24 Aug 09:45:08 09:49:23 59° 101° (ESE) 09:53:42 437.345
STRAND 1 24 Aug 09:45:15 09:46:45 11° 279° (W) 09:48:15 437.568
M-CUBED/EXP-1 PRIME 24 Aug 09:46:13 09:49:36 20° 47° (NE) 09:52:59 437.505
O/OREOS (USA 219) 24 Aug 09:46:21 09:50:36 44° 112° (ESE) 09:54:53 437.305
AO-85 24 Aug 09:53:33 09:56:39 21° 2° (N) 09:59:52 145.980
BEESAT 2 24 Aug 09:56:23 09:59:32 21° 356° (N) 10:02:41 435.950
AAUSAT CUBESAT 2 24 Aug 09:56:40 10:00:51 71° 289° (WNW) 10:05:01 437.432
Tancredo 1 24 Aug 09:59:23 10:01:45 23° 157° (SSE) 10:04:07 437.200
AO-73 24 Aug 10:04:08 10:08:26 79° 103° (ESE) 10:12:49 145.935
POLYITAN 1 24 Aug 10:08:08 10:09:15 11° 48° (NE) 10:10:22 437.675
UNISAT 6 24 Aug 10:11:24 10:15:42 85° 255° (WSW) 10:20:00 437.425
RS-15 24 Aug 10:12:13 10:21:53 29° 102° (ESE) 10:31:34 29.354- 29.394
HO-68 24 Aug 10:14:51 10:21:39 48° 302° (WNW) 10:28:26 435.675
CUTE 1.7 + AOD 2 24 Aug 10:17:22 10:20:35 21° 302° (WNW) 10:23:48 437.475
EO-88 24 Aug 10:18:47 10:21:06 16° 89° (E) 10:23:24 145.990 - 145.960
EO-79 24 Aug 10:21:42 10:23:50 14° 52° (NE) 10:25:59 145.935-145.965
QB50P2 24 Aug 10:22:02 10:24:24 15° 53° (NE) 10:26:46 145.880/145.840
AO-7 24 Aug 10:25:14 10:29:20 15° 357° (N) 10:33:27 .
DELFI C3 24 Aug 10:29:44 10:33:21 32° 95° (E) 10:36:55 145.870
ISS 24 Aug 10:33:40 10:36:09 20° 151° (SSE) 10:38:36 437.550
nSIGHT-1 24 Aug 10:37:08 10:39:40 21° 153° (SSE) 10:42:13 .
Oscar 11 24 Aug 10:45:07 10:49:26 60° 290° (WNW) 10:53:44 .
TIGRISAT 24 Aug 10:45:45 10:49:52 45° 261° (W) 10:53:59 435.000
DUCHIFAT 1 24 Aug 10:46:29 10:49:17 18° 55° (NE) 10:52:05 145.980
PRISM 24 Aug 10:46:58 10:51:03 53° 259° (W) 10:55:10 437.425
UWE-3 24 Aug 10:50:21 10:53:53 26° 299° (WNW) 10:57:27 435.000/436.395/437.385
SEEDS 24 Aug 10:58:51 11:01:11 15° 307° (NW) 11:03:31 437.485
AIST 2D 24 Aug 11:03:41 11:07:02 45° 69° (ENE) 11:10:25 435.315
Max Valier Satellite 24 Aug 11:05:24 11:09:03 55° 100° (E) 11:12:43 145.860
CUBEBUG 2 24 Aug 11:06:13 11:08:30 14° 307° (NW) 11:10:49 437.445
FO-29 24 Aug 11:09:00 11:14:58 27° 270° (W) 11:20:27 435.910
BEESAT 3 24 Aug 11:12:53 11:16:33 31° 25° (NNE) 11:20:10 437.485
M-CUBED/EXP-1 PRIME 24 Aug 11:18:46 11:23:25 85° 69° (ENE) 11:28:07 437.505
ZACube-1 24 Aug 11:21:59 11:25:23 23° 301° (WNW) 11:28:49 437.345
O/OREOS (USA 219) 24 Aug 11:26:00 11:30:08 35° 314° (NW) 11:34:18 437.305
NANOSAT C BR1 24 Aug 11:32:03 11:36:00 42° 66° (ENE) 11:39:58 145.865
AAUSAT CUBESAT 2 24 Aug 11:33:35 11:35:36 13° 308° (NW) 11:37:37 437.432
Tancredo 1 24 Aug 11:33:44 11:36:31 41° 177° (S) 11:39:17 437.200
AO-85 24 Aug 11:34:22 11:38:05 33° 25° (NNE) 11:42:02 145.980
BEESAT 2 24 Aug 11:34:54 11:38:25 27° 19° (NNE) 11:41:55 435.950
LO-87 24 Aug 11:36:50 11:39:11 17° 90° (E) 11:41:31 145.935 - 145.965
POLYITAN 1 24 Aug 11:40:05 11:44:10 54° 69° (ENE) 11:48:17 437.675
AO-73 24 Aug 11:41:15 11:44:13 19° 304° (WNW) 11:47:14 145.935
Oscar 19 24 Aug 11:45:24 11:48:39 17° 48° (NE) 11:51:55 437.125/150
Gurwin Techsat 1B 24 Aug 11:48:57 11:51:41 14° 44° (NE) 11:54:26 435.225
UNISAT 6 24 Aug 11:51:06 11:53:07 13° 275° (W) 11:55:07 437.425
EO-88 24 Aug 11:51:30 11:55:09 63° 289° (WNW) 11:58:48 145.990 - 145.960
EO-79 24 Aug 11:54:43 11:58:54 73° 73° (ENE) 12:03:07 145.935-145.965
QB50P2 24 Aug 11:55:21 11:59:33 80° 73° (ENE) 12:03:47 145.880/145.840
HO-68 24 Aug 12:03:26 12:07:52 18° 326° (NW) 12:12:18 435.675
DELFI C3 24 Aug 12:04:30 12:08:09 34° 295° (WNW) 12:11:45 145.870
BUGSAT 1 24 Aug 12:06:33 12:10:02 28° 62° (ENE) 12:13:31 437.445
ISS 24 Aug 12:09:00 12:12:08 42° 171° (S) 12:15:16 437.550
nSIGHT-1 24 Aug 12:12:27 12:15:35 43° 172° (S) 12:18:42 .
AO-7 24 Aug 12:13:39 12:19:08 20° 25° (NNE) 12:24:37 .
ESTCUBE 1 24 Aug 12:18:51 12:22:58 32° 95° (E) 12:27:04 437.505/2401.250
RS-15 24 Aug 12:20:15 12:32:31 76° 128° (SE) 12:44:44 29.354- 29.394
DUCHIFAT 1 24 Aug 12:20:17 12:24:28 81° 256° (WSW) 12:28:40 145.980
Oscar 11 24 Aug 12:22:56 12:24:45 12° 310° (NW) 12:26:33 .
AIST 2D 24 Aug 12:37:52 12:40:28 19° 269° (W) 12:43:05 435.315
Max Valier Satellite 24 Aug 12:39:52 12:42:36 20° 300° (WNW) 12:45:20 145.860
BEESAT 3 24 Aug 12:50:26 12:54:29 74° 226° (SW) 12:58:26 437.485
M-CUBED/EXP-1 PRIME 24 Aug 12:55:11 12:58:23 18° 266° (W) 13:01:36 437.505
NANOSAT C BR1 24 Aug 13:08:15 13:11:53 28° 266° (W) 13:15:31 145.865
Tancredo 1 24 Aug 13:08:43 13:11:21 30° 196° (SSW) 13:13:56 437.200
O/OREOS (USA 219) 24 Aug 13:08:47 13:10:54 13° 338° (NNW) 13:13:00 437.305
LO-87 24 Aug 13:09:28 13:12:57 54° 289° (WNW) 13:16:24 145.935 - 145.965
BEESAT 2 24 Aug 13:12:38 13:16:45 77° 42° (NE) 13:20:48 435.950
AO-85 24 Aug 13:14:39 13:18:49 73° 227° (SW) 13:23:16 145.980
ITAMSAT 1 24 Aug 13:15:10 13:16:42 11° 40° (NE) 13:18:14 435.822/435.867
POLYITAN 1 24 Aug 13:16:58 13:20:17 22° 269° (W) 13:23:35 437.675
Oscar 19 24 Aug 13:22:01 13:27:09 69° 69° (ENE) 13:32:20 437.125/150
50 SAT 24 Aug 13:22:25 13:23:08 10° 87° (E) 13:23:51 437.505
SPROUT 24 Aug 13:25:22 13:29:22 38° 97° (E) 13:33:20 437.525
Gurwin Techsat 1B 24 Aug 13:25:26 13:30:36 54° 65° (ENE) 13:35:48 435.225
EO-88 24 Aug 13:27:34 13:28:06 10° 308° (NW) 13:28:37 145.990 - 145.960
EO-79 24 Aug 13:32:26 13:35:11 17° 272° (W) 13:37:56 145.935-145.965
QB50P2 24 Aug 13:33:22 13:35:55 15° 272° (W) 13:38:27 145.880/145.840
DX 1 24 Aug 13:36:31 13:39:00 15° 87° (E) 13:41:28 434.975-435.025
BUGSAT 1 24 Aug 13:41:26 13:45:17 41° 261° (W) 13:49:08 437.445
ISS 24 Aug 13:45:11 13:48:19 40° 191° (S) 13:51:25 437.550
VELOX 1 24 Aug 13:45:45 13:50:04 47° 100° (E) 13:54:19 145.980
nSIGHT-1 24 Aug 13:48:34 13:51:39 39° 192° (SSW) 13:54:43 .
ESTCUBE 1 24 Aug 13:55:35 13:59:54 42° 295° (WNW) 14:04:11 437.505/2401.250
DUCHIFAT 1 24 Aug 13:59:12 14:00:51 12° 275° (W) 14:02:31 145.980
AO-7 24 Aug 14:02:15 14:09:59 44° 50° (NE) 14:17:41 .
YUBILEINY 24 Aug 14:04:07 14:08:23 15° 65° (ENE) 14:12:38 435.215
